This is the latest recevied weather packets stored in our database for station/object KI4NG. If no packets are shown the sender has not sent any weather packets the latest 10 day(s).
| Time | Temp. | Humidity | Pressure | Rain* | Wind** | Luminosity | Snow |
|---|---|---|---|---|---|---|---|
| 1788476434 | 30.56° C | 66% | 1018.2 hPa | 0 mm | - | 46 W/m² | - |
| 1788476132 | 31.11° C | 62% | 1018.2 hPa | 0 mm | - | 49 W/m² | - |
| 1788475828 | 31.67° C | 64% | 1018.2 hPa | 0 mm | - | 53 W/m² | - |
| 1788475524 | 31.67° C | 63% | 1018.2 hPa | 0 mm | - | 55 W/m² | - |
| 1788475220 | 31.67° C | 62% | 1018.5 hPa | 0 mm | - | 64 W/m² | - |
| 1788474919 | 31.11° C | 63% | 1018.1 hPa | 0 mm | - | 127 W/m² | - |
| 1788474618 | 30.56° C | 68% | 1018.3 hPa | 0 mm | - | 65 W/m² | - |
| 1788474313 | 31.11° C | 66% | 1018.3 hPa | 0 mm | - | 57 W/m² | - |
| 1788474012 | 31.67° C | 66% | 1017.8 hPa | 0 mm | - | 61 W/m² | - |
| 1788473709 | 32.22° C | 63% | 1017.8 hPa | 0 mm | - | 69 W/m² | - |
| 1788473426 | 31.67° C | 66% | 1018.1 hPa | 0 mm | - | 88 W/m² | - |
| 1788473105 | 31.67° C | 66% | 1017.9 hPa | 0 mm | - | 75 W/m² | - |
| 1788472804 | 31.67° C | 64% | 1018.1 hPa | 0 mm | - | 94 W/m² | - |
| 1788472499 | 31.67° C | 65% | 1018.1 hPa | 0 mm | - | 85 W/m² | - |
| 1788472197 | 31.67° C | 63% | 1018.1 hPa | 0 mm | - | 69 W/m² | - |
| 1788471892 | 32.22° C | 64% | 1018.1 hPa | 0 mm | - | 57 W/m² | - |
| 1788471587 | 32.78° C | 63% | 1017.9 hPa | 0 mm | - | 74 W/m² | - |
| 1788471283 | 33.33° C | 62% | 1018.2 hPa | 0 mm | - | 76 W/m² | - |
| 1788470979 | 33.89° C | 59% | 1018.2 hPa | 0 mm | - | 118 W/m² | - |
| 1788470674 | 33.89° C | 60% | 1018.1 hPa | 0 mm | - | 165 W/m² | - |
| 1788470374 | 33.33° C | 60% | 1018.1 hPa | 0 mm | - | 356 W/m² | - |
| 1788470070 | 34.44° C | 57% | 1018.5 hPa | 0 mm | - | 123 W/m² | - |
| 1788469766 | 35.56° C | 54% | 1018.1 hPa | 0 mm | - | 164 W/m² | - |
| 1788469465 | 35.56° C | 55% | 1018.2 hPa | 0 mm | - | 463 W/m² | - |
| 1788469161 | 35° C | 55% | 1018.2 hPa | 0 mm | - | 470 W/m² | - |
* Rain latest hour (hover to see other rain measurements)
** Current wind speed in m/s (hover to see current wind gust speed)